Weather observations for the past three days for
Grants, Grants-Milan Municipal Airport
Imperial (Metric)
Date Time (mdt) Wind (mph) Vis. (mi.) Weather Sky Cond. Temperature (ºF) Relative Humidity Wind Chill (°F) Heat Index (°F) Pressure Precipitation (in)
Air Dwpt 6 hour altimeter (in) sea level (mb) 1 hr 3 hr 6 hr
Max. Min.
25 08:55 NW 5 10.00 Fair CLR 71.6 52.9 52% 30.28 0.0
25 08:35 N 5 10.00 Fair CLR 69.3 54 58% 30.28 0.0
25 08:15 NW 5 10.00 Fair CLR 67.8 54.7 63% 30.28 0.0
25 07:55 NW 6 10.00 Fair CLR 65.5 55 69% 30.28 0.0
25 07:35 NW 5 10.00 Fair CLR 63.7 55.4 75% 30.27 0.0
25 07:15 NW 3 10.00 Fair CLR 63.1 54.7 74% 30.26 0.0
25 06:55 Calm 10.00 Fair CLR 59.4 54.9 85% 30.26 0.0
25 06:35 Calm 10.00 Fair CLR 56.5 52.7 87% 30.26 0.0
25 06:15 Calm 10.00 Fair CLR 57 53.1 87% 30.26 0.0
25 05:55 Calm 10.00 Fair CLR 57.9 53.6 66.4 57 86% 30.26 0.0
25 05:35 NW 5 10.00 Fair CLR 58.3 53.6 85% 30.24 0.0
25 05:15 Calm 10.00 Fair CLR 59.2 53.8 82% 30.24 0.0
25 04:55 Calm 10.00 Fair CLR 59.9 54.3 82% 30.24 0.0
25 04:35 N 3 10.00 Fair CLR 60.8 54.5 80% 30.23 0.0
25 04:15 W 3 10.00 Fair CLR 60.4 54.1 80% 30.23 0.0
25 03:55 Calm 10.00 Fair CLR 60.4 53.8 79% 30.23 0.0
25 03:35 Calm 10.00 Fair CLR 60.1 53.2 78% 30.23 0.0
25 03:15 Calm 10.00 Fair CLR 60.4 53.8 79% 30.23 0.0
25 02:55 Calm 10.00 Fair CLR 61.3 53.6 76% 30.23 0.0
25 02:35 Calm 10.00 Fair CLR 60.8 54 78% 30.23 0.0
25 02:15 Calm 10.00 Fair CLR 60.1 54.5 82% 30.24 0.0
25 01:55 Calm 10.00 Fair CLR 60.4 54.7 81% 30.24 0.0
25 01:35 Calm 10.00 Fair CLR 62.2 54.7 76% 30.24 0.0
25 01:15 Calm 10.00 Fair CLR 63.3 54 72% 30.24 0.0
25 00:55 Calm 10.00 Fair CLR 64.6 54.7 70% 30.25 0.0
25 00:35 Calm 10.00 Fair CLR 66 54.3 66% 30.25 0.0
25 00:15 SE 5 10.00 Fair CLR 65.1 54.5 69% 30.26 0.0
24 23:55 S 5 10.00 Fair CLR 64.4 54.3 82.4 64.4 70% 30.26 0.0
24 23:35 E 6 10.00 Fair CLR 66.9 54 63% 30.26 0.0
24 23:15 E 7 10.00 Fair CLR 68.7 53.2 58% 30.24 0.0
24 22:55 SE 3 10.00 Fair CLR 67.3 54 62% 30.26 0.0
24 22:35 S 3 10.00 Fair CLR 68.9 53.6 58% 30.26 0.0
24 22:15 Calm 10.00 Fair CLR 69.4 52.9 56% 30.26 0.0
24 21:55 Calm 10.00 Fair CLR 69.3 52.7 56% 30.24 0.0
24 21:35 SE 5 10.00 Fair CLR 69.1 53.1 57% 30.24 0.0
24 21:15 S 5 10.00 Fair CLR 69.4 52.7 55% 30.24 0.0
24 20:55 S 6 10.00 Fair CLR 70.3 52 52% 30.24 0.0
24 20:35 S 12 G 18 10.00 Fair CLR 71.2 51.4 50% 30.24 0.0
24 20:15 S 10 10.00 Fair CLR 71.6 52.2 50% 30.24 0.0
24 19:55 S 10 10.00 Fair CLR 72.9 52 48% 30.24 0.0
24 19:35 S 15 G 20 10.00 Fair CLR 73 52.7 49% 30.23 0.0
24 19:15 SE 16 G 23 10.00 Fair CLR 73.8 52.5 48% 30.23 0.0
24 18:55 SE 15 G 23 10.00 Mostly Cloudy BKN090 73.8 52.3 47% 30.22 0.0
24 18:35 S 10 10.00 Overcast OVC090 77.2 50.9 40% 78 30.21 0.0
24 18:15 SE 20 G 25 10.00 Overcast BKN100 OVC110 78.4 49.8 37% 79 30.2 0.0
24 17:55 S 15 G 24 10.00 Overcast BKN100 OVC120 82.6 45.7 88.7 80.1 27% 81 30.17 0.0
24 17:35 Calm 10.00 Mostly Cloudy BKN120 86.4 41 20% 83 30.17 0.0
24 17:15 Calm 10.00 Partly Cloudy SCT120 86 42.6 22% 83 30.17 0.0
24 16:55 N 8 10.00 Partly Cloudy SCT080 SCT110 87.6 42.3 20% 84 30.17 0.0
24 16:35 W 5 10.00 Partly Cloudy SCT110 88.3 44.1 21% 85 30.18 0.0
24 16:15 N 9 10.00 Partly Cloudy SCT080 87.8 44.4 22% 85 30.18 0.0
24 15:55 NW 6 10.00 Partly Cloudy SCT080 85.8 43.9 23% 83 30.19 0.0
24 15:35 NW 10 10.00 Partly Cloudy SCT080 88.7 43.7 21% 85 30.2 0.0
24 15:15 W 9 10.00 Fair CLR 85.6 45.1 24% 83 30.21 0.0
24 14:55 NW 5 10.00 Partly Cloudy SCT090 85.6 44.2 23% 83 30.22 0.0
24 14:35 NW 7 G 16 10.00 Partly Cloudy SCT090 83.8 43.5 24% 81 30.23 0.0
24 14:15 NW 14 G 18 10.00 Partly Cloudy SCT070 SCT090 84.7 44.6 25% 82 30.23 0.0
24 13:55 W 9 10.00 Mostly Cloudy SCT070 BKN090 82.6 44.8 27% 81 30.24 0.0
24 13:35 Calm 10.00 Mostly Cloudy SCT070 BKN090 84.7 44.4 24% 82 30.24 0.0
24 13:15 N 7 10.00 Mostly Cloudy SCT070 BKN090 83.7 47.5 28% 82 30.26 0.0
24 12:55 Calm 10.00 Partly Cloudy SCT090 SCT120 81.5 47.5 30% 80 30.26 0.0
24 12:35 NW 9 10.00 Light Rain SCT065 BKN080 BKN120 80.1 48 33% 79 30.27 0.0
24 12:15 Calm 10.00 Partly Cloudy SCT065 SCT120 82.6 47.8 30% 81 30.28 0.0
24 11:55 Calm 10.00 Partly Cloudy SCT100 81.9 48.2 82 55.9 31% 80 30.28 0.0
24 11:35 NW 5 10.00 Partly Cloudy SCT110 80.8 48.2 32% 80 30.28 0.0
24 11:15 NW 5 10.00 Fair CLR 80.1 48.4 33% 79 30.29 0.0
24 10:55 N 7 10.00 Fair CLR 78.6 48.7 35% 79 30.29 0.0
24 10:35 N 6 10.00 Fair CLR 77.4 47.8 35% 78 30.29 0.0
24 10:15 NE 3 10.00 Fair CLR 76.5 48 37% 78 30.3 0.0
24 09:55 Calm 10.00 Fair CLR 73.9 51.3 45% 30.31 0.0
24 09:35 Calm 10.00 Fair CLR 71.6 51.3 49% 30.31 0.0
24 09:15 N 3 10.00 Fair CLR 69.8 51.8 53% 30.31 0.0
24 08:55 Calm 10.00 Fair CLR 67.8 54 61% 30.31 0.0
24 08:35 N 3 10.00 Fair CLR 66 54.5 67% 30.32 0.0
24 08:15 N 5 10.00 Fair CLR 65.1 53.6 66% 30.32 0.0
24 07:55 N 6 10.00 Fair CLR 63.9 54.3 71% 30.31 0.0
24 07:35 N 7 10.00 Fair CLR 62.1 54.7 77% 30.31 0.0
24 07:15 N 3 10.00 Fair CLR 60.4 54.1 80% 30.31 0.0
24 06:55 N 5 10.00 Fair CLR 58.6 52.9 81% 30.31 0.0
24 06:35 W 3 10.00 Fair CLR 56.7 51.8 84% 30.31 0.0
24 06:15 NW 5 10.00 Fair CLR 56.3 52.3 87% 30.3 0.0
24 05:55 NW 5 10.00 Fair CLR 56.8 52.7 66.2 56.3 86% 30.3 0.0
24 05:35 NW 5 10.00 Fair CLR 57.6 52.3 83% 30.29 0.0
24 05:15 NW 6 10.00 Fair CLR 56.7 52.2 85% 30.29 0.0
24 04:55 N 3 10.00 Fair CLR 57 51.8 83% 30.29 0.0
24 04:35 Calm 10.00 Fair CLR 59.2 52 77% 30.29 0.0
24 04:15 Calm 10.00 Fair CLR 58.5 53.8 85% 30.28 0.0
24 03:55 NW 5 10.00 Fair CLR 58.5 53.6 84% 30.29 0.0
24 03:35 Calm 10.00 Fair CLR 59.5 54.9 85% 30.28 0.0
24 03:15 NW 5 10.00 Fair CLR 59.2 54.5 85% 30.29 0.0
24 02:55 W 3 10.00 Fair CLR 60.4 55.8 85% 30.29 0.0
24 02:35 Calm 10.00 Fair CLR 59.5 55.2 86% 30.3 0.0
24 02:15 Calm 10.00 Partly Cloudy SCT110 60.1 55.6 85% 30.31 0.0
24 01:55 Calm 10.00 Partly Cloudy SCT110 61 55.8 83% 30.31 0.0
24 01:35 Calm 10.00 Fair CLR 62.2 56.7 82% 30.32 0.0
24 00:55 S 5 10.00 Fair CLR 63.5 56.5 78% 30.32 0.0
24 00:35 Calm 10.00 Fair CLR 66.2 51.3 59% 30.32 0.0
24 00:15 SE 6 10.00 Fair CLR 66.2 51.8 60% 30.32 0.0
23 23:35 S 7 10.00 Partly Cloudy SCT120 64.4 54.5 70% 30.32 0.0
23 23:15 S 5 10.00 Partly Cloudy SCT120 66 53.8 65% 30.32 0.0
23 22:55 S 5 10.00 Partly Cloudy SCT120 66.6 53.6 63% 30.31 0.0
23 22:35 Calm 10.00 Mostly Cloudy SCT095 BKN110 68.4 51.6 55% 30.31 0.0
23 22:15 SE 3 10.00 Overcast OVC095 67.6 53.2 60% 30.3 0.0
23 21:55 SE 3 10.00 Mostly Cloudy BKN095 BKN120 67.3 53.8 62% 30.29 0.0
23 21:35 S 3 10.00 Mostly Cloudy BKN120 67.1 53.2 61% 30.28 0.0
23 21:15 S 7 10.00 Mostly Cloudy BKN110 67.1 53.2 61% 30.28 0.0
23 20:55 SE 5 10.00 Mostly Cloudy BKN110 68 52 57% 30.28 0.0
23 20:35 S 7 10.00 Light Rain OVC100 70.5 52.2 52% 30.28 0.0
23 20:15 S 6 10.00 Overcast BKN100 OVC110 70.7 52.7 53% 30.28 0.0
23 19:55 Calm 10.00 Overcast SCT070 SCT085 OVC110 72.5 47.3 41% 30.27 0.0
23 19:35 Calm 10.00 Overcast SCT085 OVC110 72 49.5 45% 30.26 0.0
23 18:55 S 8 10.00 Overcast SCT065 SCT075 OVC100 72 51.8 49% 30.28 0.0
23 17:55 S 7 10.00 Light Rain SCT085 OVC110 70.5 53.1 82.4 69.3 54% 30.28 0.0
23 17:35 S 13 G 18 10.00 Overcast SCT075 OVC100 74.5 48.4 40% 30.28 0.0
23 17:15 S 10 10.00 Overcast SCT075 OVC100 75.9 46 35% 78 30.28 0.0
23 16:55 SW 14 G 18 10.00 Overcast SCT046 BKN100 OVC120 77.7 45.5 32% 78 30.28 0.0
23 16:35 S 3 10.00 Overcast OVC110 80.6 40.8 24% 79 30.28 0.0
23 16:15 Calm 10.00 Mostly Cloudy BKN110 80.8 42.6 26% 79 30.28 0.0
23 15:55 Calm 10.00 Overcast OVC120 80.6 43.5 27% 79 30.28 0.0
23 15:35 SE 6 10.00 Mostly Cloudy BKN120 80.8 44.2 28% 80 30.28 0.0
23 15:15 Calm 10.00 Partly Cloudy SCT120 80.4 44.6 28% 79 30.29 0.0
23 14:55 SW 6 10.00 Fair CLR 80.8 46.6 30% 80 30.29 0.0
23 14:35 SE 6 10.00 Fair CLR 81.5 46.2 29% 80 30.3 0.0
23 14:15 Calm 10.00 Fair CLR 79.9 47.7 32% 79 30.31 0.0
23 13:55 SE 6 10.00 Fair CLR 81.5 48.6 32% 80 30.31 0.0
23 13:35 NE 5 10.00 Fair CLR 79.9 43.7 28% 79 30.32 0.0
23 13:15 E 5 10.00 Fair CLR 79.9 44.2 28% 79 30.33 0.0
23 12:55 SE 6 10.00 Fair CLR 79.9 46.2 31% 79 30.34 0.0
23 12:35 SE 3 10.00 Partly Cloudy SCT120 79 45.1 30% 79 30.35 0.0
23 12:15 Calm 10.00 Partly Cloudy SCT120 77.5 50.2 38% 78 30.35 0.0
23 11:55 Calm 10.00 Partly Cloudy SCT120 75.7 52.9 76.1 62.1 45% 78 30.35 0.0
23 11:35 Calm 10.00 Fair CLR 75.7 53.1 45% 78 30.35 0.0
23 11:15 Calm 10.00 Fair CLR 74.8 53.4 47% 30.35 0.0
23 10:55 Calm 10.00 Fair CLR 73.8 54.7 51% 30.35 0.0
23 10:35 Calm 10.00 Fair CLR 72.9 56.3 56% 30.35 0.0
23 10:15 N 3 10.00 Fair CLR 71.6 56.5 59% 30.35 0.0
23 09:55 NW 5 10.00 Fair CLR 71.1 57.6 63% 30.35 0.0
23 09:35 NW 5 10.00 Fair CLR 70.7 57.4 63% 30.35 0.0
23 09:15 Calm 10.00 Fair CLR 70.2 57.6 64% 30.36 0.0
23 08:55 Calm 10.00 Fair CLR 69.8 57.6 65% 30.35 0.0
23 08:35 N 3 10.00 Fair CLR 69.1 57.2 66% 30.35 0.0
23 08:15 NE 3 10.00 Fair CLR 69.4 57.6 66% 30.35 0.0
23 07:55 Calm 10.00 Fair CLR 66.2 58.1 75% 30.35 0.0
23 07:35 Calm 10.00 Fair CLR 63.7 57.6 81% 30.34 0.0
23 07:15 W 5 10.00 Fair CLR 63.1 58.1 84% 30.35 0.0
23 06:55 W 3 10.00 Fair CLR 62.6 58.5 86% 30.34 0.0
23 06:35 NW 5 10.00 Fair CLR 62.1 58.1 87% 30.33 0.0
23 06:15 NW 6 10.00 Partly Cloudy SCT110 62.6 58.3 86% 30.33 0.0
23 05:55 NW 3 10.00 Mostly Cloudy BKN120 62.2 58.1 66 62.2 86% 30.33 0.0
23 05:35 W 3 10.00 Partly Cloudy SCT120 62.4 58.5 87% 30.33 0.0
23 05:15 W 5 10.00 Partly Cloudy SCT120 62.2 58.5 88% 30.33 0.0
23 04:55 NW 3 10.00 Fair CLR 62.6 58.3 86% 30.32 0.0
23 04:35 Calm 10.00 Fair CLR 63.3 57.2 81% 30.32 0.0
23 04:15 N 3 10.00 Fair CLR 63.7 56.7 78% 30.32 0.0
23 03:55 N 3 10.00 Fair CLR 64.6 57.6 78% 30.32 0.0
23 03:35 N 3 10.00 Fair CLR 64 57.4 79% 30.32 0.0
23 03:15 Calm 10.00 Fair CLR 64 57.7 80% 30.32 0.0
23 02:55 W 6 10.00 Fair CLR 63.5 58.3 83% 30.32 0.0
23 02:35 Calm 10.00 Fair CLR 64 58.1 81% 30.33 0.0
23 02:15 SE 5 10.00 Fair CLR 64.4 58.1 80% 30.34 0.0
23 01:55 Calm 10.00 Fair CLR 64.6 57.7 79% 30.32 0.0
23 01:35 Calm 10.00 Fair CLR 65.3 57.9 77% 30.32 0.0
23 01:15 N 3 10.00 Fair CLR 65.5 58.5 78% 30.34 0.0
23 00:55 N 6 10.00 Fair CLR 65.1 57.7 77% 30.34 0.0
23 00:35 W 6 10.00 Partly Cloudy SCT110 65.1 58.3 79% 30.34 0.0
23 00:15 Calm 10.00 Mostly Cloudy BKN120 65.8 58.3 77% 30.35 0.0
22 23:55 Calm 10.00 Mostly Cloudy BKN120 65.3 59.9 72.9 64.9 83% 30.35 0.0
22 23:35 NW 3 10.00 Partly Cloudy SCT120 65.3 59.4 81% 30.35 0.0
22 23:15 NE 3 10.00 Fair CLR 66 59.2 79% 30.35 0.0
22 22:55 N 7 10.00 Partly Cloudy SCT110 65.8 58.8 78% 30.35 0.0
22 22:35 S 5 10.00 Partly Cloudy SCT110 65.5 59 80% 30.34 0.0
22 22:15 Calm 10.00 Partly Cloudy SCT120 66.9 59 76% 30.34 0.0
22 21:55 Calm 10.00 Partly Cloudy SCT120 66.4 58.8 77% 30.34 0.0
22 21:35 Calm 10.00 Fair CLR 67.3 58.3 73% 30.33 0.0
22 21:15 Calm 10.00 Fair CLR 67.3 59.4 76% 30.32 0.0
22 20:55 Calm 10.00 Fair CLR 68.4 58.1 70% 30.31 0.0
22 20:35 Calm 10.00 Fair CLR 68.9 58.1 69% 30.31 0.0
22 20:15 Calm 10.00 Fair CLR 69.6 60.4 73% 30.31 0.0
22 19:55 Calm 10.00 Fair CLR 70.3 59.9 70% 30.31 0.0
22 19:35 Calm 10.00 Fair CLR 71.2 56.5 60% 30.3 0.0
22 19:15 Calm 10.00 Fair CLR 72.5 54.7 54% 30.3 0.0
22 18:55 W 3 10.00 Fair CLR 72.9 53.8 51% 30.31 0.0
22 18:35 W 3 10.00 Partly Cloudy SCT120 72.7 54.1 52% 30.31 0.0
22 18:15 Calm 10.00 Fair CLR 72.9 53.2 50% 30.31 0.0
22 17:55 W 3 10.00 Partly Cloudy SCT120 72.7 54.3 73 65.5 53% 30.32 0.0
22 17:35 NW 5 10.00 Partly Cloudy SCT110 72.5 54 52% 30.32 0.0
22 17:15 NW 6 10.00 Fair CLR 72.5 53.2 51% 30.32 0.0
22 16:55 NW 7 10.00 Partly Cloudy SCT110 72.3 53.8 52% 30.32 0.0
22 16:35 N 7 10.00 Mostly Cloudy BKN110 72.1 53.2 52% 30.33 0.0
22 16:15 N 7 10.00 Mostly Cloudy BKN110 72.3 54 53% 30.33 0.0
22 15:55 NW 3 10.00 Partly Cloudy SCT120 72.5 53.1 51% 30.34 0.0
22 15:35 N 6 10.00 Fair CLR 72.5 54 52% 30.34 0.0
22 15:15 Calm 10.00 Fair CLR 72.5 52.7 50% 30.34 0.0
22 14:55 Calm 10.00 Partly Cloudy SCT120 71.8 51.1 48% 30.35 0.0
22 14:35 Calm 10.00 Partly Cloudy SCT120 71.2 54.3 55% 30.35 0.0
22 14:15 Calm 10.00 Partly Cloudy SCT120 69.4 55.9 62% 30.36 0.0
22 13:55 SE 3 10.00 Overcast OVC120 69.1 56.1 64% 30.36 0.0
22 13:35 S 5 10.00 Mostly Cloudy BKN120 67.8 57.7 70% 30.36 0.0
22 13:15 S 7 10.00 Overcast OVC110 66.9 57.7 73% 30.37 0.0
22 12:55 S 7 10.00 Mostly Cloudy SCT029 SCT046 BKN120 66.6 56.8 71% 30.38 0.0
22 12:35 S 6 10.00 Overcast SCT029 BKN075 OVC090 66.2 56.5 71% 30.38 0.0
22 12:15 S 6 10.00 Overcast SCT048 BKN075 OVC090 65.7 55.8 71% 30.38 0.0
22 11:55 SE 7 10.00 Overcast SCT050 BKN075 OVC100 65.3 56.7 65.3 58.3 74% 30.38 0.0 0.02
22 11:35 SE 7 10.00 Light Rain SCT045 SCT060 OVC100 64.2 56.7 77% 30.38 0.0
22 11:15 S 7 10.00 Light Rain SCT075 SCT090 OVC110 62.8 57.4 83% 30.38 0.0
22 10:55 S 8 10.00 Light Rain SCT065 OVC095 62.6 56.3 80% 30.38 0.0
22 10:35 SE 8 10.00 Light Rain SCT065 SCT070 OVC095 61.9 57.2 85% 30.38 0.0
22 10:15 SE 12 10.00 Overcast SCT070 SCT075 OVC095 61.2 55.9 83% 30.37 0.0
22 09:55 SE 9 10.00 Light Drizzle SCT070 OVC095 61.2 56.1 84% 30.37 0.0
22 09:35 SE 8 10.00 Light Drizzle SCT080 OVC095 61 56.8 86% 30.37 0.0
22 09:15 SE 10 10.00 Light Rain SCT060 BKN095 OVC120 61.2 56.7 85% 30.38 0.0
Date Time (mdt) Wind (mph) Vis. (mi.) Weather Sky Cond. Air Dwpt Max. Min. Relative Humidity Wind Chill (°F) Heat Index (°F) altimeter (in) sea level (mb) 1 hr 3 hr 6 hr
6 hour
Temperature (ºF) Pressure Precipitation (in)